Location: Unnamed
(48.6007°N, 2.4808°E)
Time: 10:55:44
(UTC+02:00)

CUTE 1.7 + AOD 2 - Pass Details

Date: 10 April 2023
Orbit: 582 x 600 km, 97.7° (Epoch: 29 May)

Event Time Altitude Azimuth Distance (km) Brightness Sun altitude
Rises 05:34:52 0° 13° (NNE) 2,861 ? -15.4°
Reaches altitude 10° 05:37:02 10° 14° (NNE) 1,955 ? -15.1°
Maximum altitude 05:41:18 87° 103° (ESE) 610 ? -14.5°
Enters shadow 05:45:19 11° 193° (SSW) 1,850 ? -13.9°
